Total_Precipitation_Accumulation
0.84 0.56 0.79 0.85 0.78 0.69 0.74 0.81 0.77 0.69 0.69 0.66 0.53 0.47 0.47 0.45 0.41 0.34 0.27 0.21 0.21 0.22 0.24 0.27 0.30 0.37 0.33 0.28 0.31 0.40 0.42 0.37 0.34 0.32 0.40 0.47 0.48 0.52 0.61 0.72 0.97 1.21 0.81
0.71 0.51 0.81 0.92 0.85 0.76 0.72 0.74 0.81 0.76 0.80 0.75 0.64 0.54 0.52 0.47 0.41 0.32 0.25 0.20 0.20 0.21 0.23 0.26 0.32 0.34 0.34 0.36 0.39 0.44 0.40 0.32 0.27 0.32 0.51 0.66 0.57 0.52 0.53 0.60 0.95 1.11 0.76
0.58 0.49 0.65 0.95 0.96 0.85 0.80 0.80 0.87 0.86 0.93 0.86 0.80 0.69 0.60 0.52 0.45 0.37 0.29 0.28 0.28 0.25 0.24 0.26 0.38 0.39 0.36 0.43 0.45 0.44 0.41 0.29 0.26 0.36 0.73 1.35 0.97 0.55 0.48 0.60 0.83 0.71 0.68
0.61 0.58 0.64 0.87 0.91 0.87 0.84 0.88 0.97 0.97 1.05 1.01 0.84 0.68 0.55 0.54 0.56 0.47 0.41 0.48 0.35 0.26 0.25 0.29 0.38 0.42 0.40 0.43 0.45 0.42 0.41 0.38 0.41 0.50 0.95 1.35 1.35 0.81 0.69 0.81 0.83 0.71 0.77
0.67 0.63 0.83 1.04 1.01 0.96 0.90 1.03 1.12 1.11 1.15 1.01 0.75 0.58 0.54 0.58 0.64 0.66 0.64 0.61 0.40 0.31 0.28 0.31 0.38 0.43 0.40 0.39 0.39 0.36 0.36 0.44 0.60 0.75 1.06 1.28 1.48 1.02 0.82 0.87 0.86 0.76 0.86
0.68 0.66 0.85 1.07 1.06 1.03 1.00 1.10 1.19 1.26 1.24 1.12 0.83 0.65 0.63 0.71 0.72 0.71 0.76 0.62 0.51 0.44 0.37 0.39 0.43 0.45 0.40 0.38 0.40 0.38 0.42 0.50 0.58 0.85 1.13 1.36 1.40 0.96 0.76 0.82 0.84 0.96 0.95
0.66 0.60 0.65 0.87 0.96 0.98 1.02 1.19 1.27 1.31 1.33 1.24 1.00 0.84 0.75 0.72 0.73 0.75 0.80 0.67 0.60 0.53 0.51 0.53 0.52 0.49 0.47 0.45 0.41 0.39 0.41 0.42 0.48 0.71 0.97 1.38 1.21 0.81 0.69 0.76 0.82 0.91 0.95
0.83 0.71 0.62 0.72 0.82 0.88 0.95 1.09 1.17 1.21 1.21 1.17 1.01 0.88 0.81 0.77 0.74 0.81 0.87 0.76 0.69 0.61 0.56 0.57 0.57 0.56 0.54 0.50 0.45 0.43 0.42 0.36 0.35 0.53 0.76 1.11 1.07 0.88 0.73 0.77 0.91 0.90 0.94
1.00 0.90 0.72 0.68 0.75 0.89 1.02 1.04 1.04 1.04 1.06 1.04 0.95 0.91 0.85 0.81 0.74 0.75 0.78 0.72 0.71 0.72 0.68 0.62 0.60 0.59 0.55 0.53 0.49 0.49 0.45 0.37 0.39 0.50 0.57 0.93 0.93 0.87 0.77 0.79 0.93 1.02 1.07
1.21 1.02 0.81 0.70 0.71 0.75 0.79 0.91 1.01 1.05 1.05 1.04 0.93 0.85 0.80 0.75 0.67 0.68 0.64 0.61 0.67 0.77 0.84 0.76 0.67 0.63 0.58 0.53 0.49 0.52 0.48 0.35 0.39 0.48 0.59 0.71 0.79 0.84 0.78 0.68 0.69 0.76 0.88
1.03 0.94 0.95 0.91 0.87 0.86 0.79 0.83 1.01 1.10 1.11 1.02 0.95 0.89 0.81 0.62 0.53 0.58 0.55 0.65 0.74 0.88 0.94 0.91 0.83 0.71 0.62 0.53 0.50 0.52 0.42 0.32 0.43 0.48 0.57 0.58 0.74 0.84 0.79 0.64 0.57 0.54 0.66
0.74 0.74 0.79 0.85 0.93 0.95 0.85 1.04 1.27 1.16 1.03 0.83 0.87 0.79 0.76 0.71 0.68 0.56 0.58 0.74 0.87 0.92 0.90 0.93 0.94 0.80 0.64 0.47 0.49 0.46 0.31 0.28 0.35 0.37 0.40 0.54 0.71 0.80 0.78 0.70 0.56 0.47 0.55
0.65 0.63 0.63 0.69 0.78 0.87 0.99 1.20 1.51 1.55 1.33 1.15 0.97 0.90 0.86 0.76 0.68 0.62 0.61 0.67 0.73 0.76 0.67 0.72 0.76 0.63 0.53 0.51 0.53 0.41 0.31 0.30 0.30 0.34 0.44 0.60 0.77 0.83 0.76 0.70 0.63 0.56 0.54
0.53 0.57 0.49 0.46 0.58 0.68 0.79 0.91 1.20 1.27 1.21 1.08 0.91 0.84 0.90 0.85 0.75 0.71 0.68 0.72 0.73 0.71 0.77 0.79 0.83 0.75 0.60 0.53 0.53 0.53 0.44 0.36 0.38 0.48 0.58 0.60 0.79 0.88 0.83 0.75 0.69 0.64 0.61
0.57 0.60 0.54 0.45 0.46 0.50 0.55 0.62 0.76 0.92 1.03 1.03 0.99 0.83 0.82 0.81 0.76 0.78 0.73 0.77 0.69 0.67 0.74 0.81 0.81 0.82 0.74 0.61 0.56 0.56 0.62 0.54 0.49 0.52 0.63 0.71 0.89 1.03 1.08 0.96 0.80 0.73 0.73
0.51 0.63 0.62 0.52 0.48 0.50 0.47 0.47 0.48 0.61 0.76 0.92 0.94 0.83 0.85 0.86 0.81 0.86 0.83 0.82 0.79 0.73 0.75 0.90 0.84 0.88 0.86 0.79 0.62 0.59 0.61 0.57 0.52 0.52 0.61 0.84 0.90 0.90 1.09 1.22 1.08 0.93 0.83
0.45 0.50 0.57 0.54 0.56 0.60 0.59 0.59 0.49 0.52 0.59 0.73 0.85 0.84 0.90 0.85 0.77 0.82 0.85 0.82 0.81 0.82 0.82 0.87 0.88 0.93 0.84 0.78 0.69 0.63 0.60 0.53 0.47 0.51 0.53 0.61 0.60 0.63 0.80 1.04 1.18 1.08 0.99
0.47 0.50 0.54 0.56 0.62 0.68 0.74 0.75 0.69 0.74 0.76 0.77 0.92 0.89 0.84 0.87 0.84 0.84 0.90 0.91 0.95 0.98 0.95 0.96 0.99 1.00 0.94 0.91 0.87 0.78 0.62 0.61 0.53 0.56 0.55 0.54 0.58 0.52 0.60 0.67 0.84 0.96 1.05
0.43 0.44 0.48 0.56 0.61 0.64 0.72 0.85 0.98 1.02 1.02 0.98 1.01 0.97 0.87 0.85 0.91 1.03 1.06 1.11 1.09 1.10 1.12 1.08 1.09 1.02 1.00 0.99 0.89 0.84 0.73 0.70 0.65 0.56 0.64 0.63 0.63 0.56 0.57 0.49 0.52 0.57 0.70
0.33 0.36 0.41 0.49 0.65 0.79 0.87 0.92 1.07 1.13 1.21 1.30 1.35 1.22 1.09 1.10 1.22 1.36 1.45 1.40 1.38 1.37 1.35 1.30 1.38 1.27 1.08 1.05 0.98 0.87 0.73 0.68 0.72 0.68 0.70 0.70 0.72 0.67 0.61 0.50 0.44 0.36 0.40
0.22 0.27 0.33 0.39 0.55 0.69 0.79 0.91 1.10 1.28 1.46 1.62 1.74 1.63 1.49 1.44 1.61 1.72 1.65 1.73 1.76 1.62 1.61 1.65 1.71 1.65 1.39 1.24 1.29 1.14 0.87 0.65 0.71 0.71 0.70 0.73 0.77 0.85 0.86 0.73 0.57 0.48 0.38
0.13 0.17 0.23 0.30 0.42 0.55 0.70 0.93 1.15 1.45 1.54 1.63 1.77 1.82 1.76 1.69 1.84 1.88 1.95 2.02 2.05 2.03 1.99 1.87 1.95 2.02 1.77 1.53 1.60 1.84 1.43 1.03 0.72 0.60 0.68 0.70 0.78 0.95 0.99 0.85 0.67 0.59 0.51
0.10 0.11 0.17 0.29 0.44 0.66 0.88 1.19 1.49 1.73 1.81 1.86 1.81 1.88 1.97 2.02 2.08 2.10 2.16 2.21 2.20 2.05 2.04 2.13 2.23 2.53 2.32 1.97 1.79 2.00 1.76 1.44 1.17 0.76 0.68 0.73 0.81 0.93 0.99 1.02 0.93 0.85 0.76
0.11 0.15 0.25 0.41 0.62 0.89 1.23 1.57 1.81 2.04 2.14 1.99 1.97 2.01 2.03 1.98 2.01 2.12 2.13 2.13 2.09 2.02 2.08 2.14 2.18 2.54 2.70 2.38 2.08 1.75 1.52 1.47 1.49 1.18 0.85 0.79 0.85 0.83 0.87 0.92 0.94 1.03 1.01
0.25 0.32 0.48 0.71 1.01 1.28 1.51 1.69 1.91 2.04 2.06 2.04 2.00 2.00 1.93 1.91 1.87 1.91 1.93 2.01 2.04 2.07 2.12 2.27 2.37 2.60 2.62 2.59 2.41 2.23 2.00 1.69 1.34 1.34 1.28 1.04 0.97 0.85 0.87 0.95 1.03 1.13 1.14
0.40 0.54 0.72 0.90 1.18 1.35 1.47 1.59 1.79 1.93 1.97 2.00 1.98 1.99 1.98 1.95 1.85 1.79 1.76 1.82 1.94 2.11 2.16 2.24 2.36 2.60 2.70 2.76 2.68 2.42 2.29 2.10 1.79 1.65 1.41 1.28 1.24 1.04 0.97 0.97 1.00 1.08 1.21